Weather History for KLVM - January, 2014

Change the Weather History Date:

Friday, January 10, 2014

  Actual Average Record
Temperature  
Mean Temperature 36 °F 27 °F  
Max Temperature 42 °F 37 °F 58 °F (1995)
Min Temperature 29 °F 17 °F -30 °F (1949)
Degree Days  
Heating Degree Days 29 38  
Month to date heating degree days 364 384  
Since 1 July heating degree days 3319 3549  
Cooling Degree Days 0 0  
Month to date cooling degree days 0  
Year to date cooling degree days 0  
Moisture  
Dew Point 19 °F    
Average Humidity 57    
Maximum Humidity 75    
Minimum Humidity 38    
Precipitation  
Precipitation T in 0.02 in 1.60 in (1980)
Month to date precipitation 0.06 0.16  
Year to date precipitation 0.06 0.16  
Sea Level Pressure  
Sea Level Pressure 29.70 in    
Wind  
Wind Speed 27 mph (WSW)    
Max Wind Speed 46 mph    
Max Gust Speed 69 mph    
Visibility 8 miles    
Events Snow    
T = Trace of Precipitation, MM = Missing Value Source: NWS Daily Summary

Daily Weather History Graph

Daily Weather History Graph

Search for Another Location

Airport or City:

Trip Planner

Search our weather history database for the weather conditions in past years. The results will help you decide how hot, cold, wet, or windy it might be!

Date:

Astronomy

Jan. 10, 2014 Rise Set
Actual Time 8:01 AM MST 4:58 PM MST
Civil Twilight 7:27 AM MST 5:31 PM MST
Nautical Twilight 6:50 AM MST 6:08 PM MST
Astronomical Twilight 6:14 AM MST 6:44 PM MST
Moon 1:08 PM MST (1/10) 3:07 AM MST (1/10)
Length of Visible Light 10h 04m
Length of Day
8h 57m
Waxing Gibbous, 75% of the Moon is Illuminated
Jan 10
Waxing Gibbous
Jan 15
Full
Jan 23
Last Quarter
Jan 30
New
Feb 6
First Quarter

Hourly Weather History & Observations

Time (MST) Temp. Windchill Dew Point Humidity Pressure Visibility Wind Dir Wind Speed Gust Speed Precip Events Conditions
12:53 AM 32.0 °F 16.0 °F 12.0 °F 44% 29.68 in 10.0 mi SW 39.1 mph 54.1 mph N/A   Overcast
1:53 AM 32.0 °F 18.6 °F 14.0 °F 48% 29.65 in 10.0 mi SW 25.3 mph 44.9 mph N/A   Overcast
2:53 AM 32.0 °F 16.3 °F 15.1 °F 50% 29.62 in 10.0 mi SW 36.8 mph 57.5 mph N/A   Mostly Cloudy
3:53 AM 32.0 °F 15.6 °F 15.1 °F 50% 29.64 in 10.0 mi SW 41.4 mph 49.5 mph N/A   Overcast
4:39 AM 30.0 °F 14.0 °F 21.0 °F 69% 29.58 in 2.5 mi SW 34.5 mph 54.1 mph 0.00 in Snow Light Snow
4:49 AM 28.4 °F 12.5 °F 21.2 °F 74% 29.59 in 4.0 mi SW 31.1 mph 47.2 mph 0.00 in Snow Light Snow
4:53 AM 28.9 °F 12.8 °F 21.0 °F 72% 29.65 in 4.0 mi SW 33.4 mph 40.3 mph 0.00 in Snow Light Snow
5:03 AM 28.9 °F 12.8 °F 21.9 °F 75% 29.59 in 1.8 mi SW 33.4 mph 43.7 mph 0.00 in Snow Light Snow
5:30 AM 28.9 °F 13.2 °F 21.9 °F 75% 29.59 in 2.5 mi SW 31.1 mph 42.6 mph 0.00 in Snow Light Snow
5:53 AM 28.9 °F 13.0 °F 21.9 °F 75% 29.66 in 2.5 mi SW 32.2 mph 41.4 mph 0.00 in Snow Light Snow
5:56 AM 28.9 °F 14.5 °F 21.9 °F 75% 29.59 in 3.0 mi SW 25.3 mph 41.4 mph 0.00 in Snow Light Snow
6:53 AM 30.9 °F 16.4 °F 19.9 °F 64% 29.67 in 6.0 mi SW 28.8 mph 40.3 mph 0.00 in Snow Light Snow
7:53 AM 33.1 °F 19.8 °F 19.0 °F 56% 29.67 in 10.0 mi SW 26.5 mph 33.4 mph 0.00 in   Overcast
8:53 AM 34.0 °F 22.7 °F 19.9 °F 56% 29.69 in 10.0 mi WSW 19.6 mph - N/A   Overcast
9:53 AM 37.0 °F 26.4 °F 19.9 °F 50% 29.72 in 10.0 mi West 20.7 mph - N/A   Overcast
10:53 AM 39.0 °F 31.4 °F 19.9 °F 46% 29.73 in 10.0 mi West 12.7 mph 24.2 mph N/A   Mostly Cloudy
11:53 AM 41.0 °F 33.1 °F 19.9 °F 43% 29.70 in 10.0 mi WNW 15.0 mph 19.6 mph N/A   Overcast
12:53 PM 41.0 °F 29.8 °F 19.9 °F 43% 29.65 in 10.0 mi WSW 29.9 mph 39.1 mph N/A   Partly Cloudy
1:53 PM 41.0 °F 29.0 °F 18.0 °F 40% 29.66 in 10.0 mi West 35.7 mph 43.7 mph N/A   Clear
2:53 PM 41.0 °F 29.8 °F 17.1 °F 38% 29.69 in 10.0 mi WSW 29.9 mph 40.3 mph N/A   Clear
3:53 PM 39.9 °F 29.5 °F 18.0 °F 41% 29.73 in 10.0 mi WSW 24.2 mph 38.0 mph N/A   Clear
4:53 PM 39.0 °F 29.0 °F 18.0 °F 43% 29.78 in 10.0 mi West 20.7 mph 28.8 mph N/A   Mostly Cloudy
5:53 PM 37.9 °F 26.6 °F 17.1 °F 43% 29.80 in 10.0 mi West 25.3 mph 32.2 mph N/A   Clear
6:53 PM 37.9 °F 26.3 °F 17.1 °F 43% 29.79 in 10.0 mi West 26.5 mph 32.2 mph N/A   Partly Cloudy
7:53 PM 37.9 °F 28.2 °F 19.0 °F 47% 29.84 in 10.0 mi West 18.4 mph - N/A   Mostly Cloudy
8:53 PM 37.9 °F 26.8 °F 18.0 °F 45% 29.85 in 10.0 mi West 24.2 mph - N/A   Clear
9:53 PM 41.0 °F 29.8 °F 17.1 °F 38% 29.84 in 10.0 mi West 29.9 mph 38.0 mph N/A   Overcast
10:53 PM 39.9 °F 30.2 °F 17.1 °F 40% 29.86 in 10.0 mi West 20.7 mph - N/A   Mostly Cloudy
11:53 PM 39.9 °F 30.0 °F 17.1 °F 40% 29.82 in 10.0 mi WSW 21.9 mph 38.0 mph N/A   Mostly Cloudy